RH
98 96 94 92 94 92 92 90 80 84 86 89 83 65 59 58 53 46 40 34 29 21 15 8 6 8 12 19 26 36 43 50 44 49 52 49 47 46 46 43 40 42 48 25
93 93 92 96 98 97 91 86 84 91 94 89 70 63 64 58 48 41 36 31 23 12 8 7 7 13 23 36 42 48 53 49 49 46 46 49 51 52 54 56 50 46 93 40
97 96 97 99 97 92 86 88 90 88 86 75 66 63 59 53 45 38 30 24 11 7 5 11 18 25 38 45 43 55 63 59 56 51 52 50 52 62 74 74 76 86 86 84
97 97 95 95 95 93 92 91 89 91 81 76 66 60 52 45 41 32 17 12 7 9 12 24 33 44 50 54 56 61 87 97 71 52 66 74 99 96 79 70 88 100 88 82
97 95 97 96 94 94 95 100 97 82 74 73 68 63 46 41 24 17 9 7 9 18 32 48 50 55 56 63 70 75 93 98 100 100 100 100 100 92 78 86 100 100 100 82
93 96 95 93 97 97 100 98 90 79 73 71 61 50 40 23 14 8 8 10 19 34 53 62 64 65 62 60 59 69 97 100 100 100 100 100 98 88 95 94 100 100 97 99
100 97 95 96 96 98 100 95 83 76 71 62 51 39 22 11 6 5 8 24 40 50 59 64 60 62 64 84 95 100 100 100 100 100 98 100 89 93 86 97 100 100 100 100
99 99 98 97 100 100 94 88 88 80 59 56 33 19 8 4 6 13 21 31 44 47 46 42 40 41 48 56 100 100 100 100 100 100 100 91 95 77 91 100 96 100 100 100
98 98 100 100 100 97 92 90 89 69 56 33 18 7 4 5 7 16 24 28 30 25 25 28 35 41 44 52 62 100 100 100 100 96 100 100 70 70 99 100 97 94 100 100
100 100 100 100 96 98 96 91 67 49 27 15 5 3 4 9 15 18 20 18 18 22 24 29 33 36 63 64 98 91 99 100 100 98 100 93 82 84 95 92 88 100 100 100
100 100 98 98 99 99 84 62 38 18 6 4 4 5 11 17 16 15 16 20 22 25 30 36 50 64 96 99 100 100 100 100 100 100 100 99 98 96 93 99 100 100 95 100
100 98 98 98 98 80 57 27 10 4 4 4 6 11 11 12 14 17 21 22 25 29 40 88 97 100 100 100 100 100 99 100 100 100 100 100 99 93 81 86 100 100 100 100
99 100 98 92 77 41 17 5 4 4 4 6 8 9 11 13 16 19 23 27 32 39 54 96 100 100 100 100 100 100 100 100 100 100 100 100 92 86 81 100 100 100 100 100
100 99 87 65 26 11 3 3 4 5 6 7 9 11 15 18 19 22 28 36 47 68 100 100 100 100 100 100 100 100 100 100 100 98 90 78 83 99 100 100 100 100 100 100
93 71 34 26 4 4 4 4 5 6 8 10 13 16 19 20 20 23 33 46 73 100 100 100 100 100 100 100 100 100 100 100 91 82 79 90 100 100 100 100 96 100 100 98
48 15 5 3 4 3 3 5 6 9 11 12 14 16 19 21 25 32 42 63 89 100 100 100 100 100 100 100 100 100 100 98 92 100 100 100 100 100 100 100 100 100 100 95
6 4 4 3 3 4 6 8 10 9 10 12 14 17 21 24 30 40 62 85 100 100 100 100 100 100 100 100 100 100 100 98 100 100 100 100 99 100 100 100 100 100 100 92
4 4 3 4 6 8 8 8 9 10 12 15 18 21 23 28 35 50 71 94 100 100 100 100 100 100 100 100 100 100 99 92 87 99 100 100 100 100 100 100 97 96 94 91
3 3 4 6 7 8 9 10 11 12 14 19 23 26 30 35 42 53 69 89 99 100 100 100 100 100 100 100 100 100 97 91 89 96 100 100 100 100 100 96 93 94 95 94
4 5 7 7 10 11 11 12 13 15 18 25 28 30 32 33 43 44 54 73 94 100 100 100 100 100 100 100 100 100 99 97 100 99 100 100 100 99 95 94 94 93 95 97
7 8 10 11 11 12 14 15 16 19 25 29 32 33 34 39 42 46 52 59 73 90 98 100 99 100 100 100 97 96 95 100 100 100 100 99 97 96 95 93 92 95 94 95
10 11 11 12 14 16 18 19 19 24 30 34 34 35 38 40 42 48 55 61 67 74 82 86 88 91 94 94 94 95 97 96 95 94 95 96 96 98 99 98 98 96 96 94
12 13 14 16 19 20 20 20 26 34 38 37 38 40 40 43 45 48 52 58 64 67 71 76 80 85 90 93 94 94 96 97 96 96 96 97 97 95 97 97 94 97 97 95
15 16 19 22 22 22 21 24 30 36 41 44 46 45 46 48 50 51 54 58 60 64 67 71 75 79 82 83 85 88 88 88 90 92 92 91 91 91 88 89 89 87 85 83
19 20 23 22 21 22 26 30 32 34 38 40 43 45 50 54 61 60 63 67 72 74 78 81 83 85 86 86 86 87 87 88 88 89 90 90 92 93 92 91 92 90 88 85
21 20 20 22 22 26 29 33 36 38 39 39 38 41 44 45 50 50 53 57 59 62 64 65 68 70 76 83 89 92 92 94 94 94 95 96 96 95 94 90 90 91 91 90
18 17 22 28 32 35 36 38 40 39 38 38 42 43 44 45 45 49 49 53 54 55 56 58 60 63 65 66 68 74 80 87 91 92 92 94 95 95 96 95 90 90 89 91
Wind_Speed
38 40 43 48 50 51 53 56 58 60 63 68 68 68 70 72 75 77 80 82 83 83 85 83 75 69 63 60 56 52 48 49 45 42 42 42 43 42 43 46 46 48 49 51
43 44 48 50 51 53 57 58 61 63 68 68 69 72 74 77 80 82 85 88 86 84 80 73 66 59 53 50 48 46 44 47 45 42 40 41 40 39 40 40 41 44 44 46
45 49 50 51 54 56 59 64 66 70 74 73 74 76 77 81 83 86 87 90 86 80 77 62 59 51 49 47 45 44 46 47 41 40 37 38 39 38 37 36 39 38 39 37
47 49 52 56 58 61 66 68 70 74 73 74 78 82 84 87 88 90 88 90 77 70 64 53 51 49 47 48 46 43 41 42 40 36 36 39 37 39 35 34 31 34 29 30
50 53 57 60 64 67 71 72 76 76 76 79 82 84 84 88 86 90 81 79 68 61 55 51 52 51 50 47 44 42 39 37 35 42 41 41 40 44 32 31 28 22 32 29
52 55 59 64 68 71 74 76 75 78 80 83 86 86 89 88 89 85 73 69 63 57 53 54 54 53 51 47 43 40 40 39 42 41 38 42 47 35 34 29 25 29 27 25
59 63 66 70 72 75 76 76 79 81 83 86 88 90 90 88 83 80 70 62 59 57 54 54 53 51 47 40 37 43 47 45 46 33 30 34 37 34 35 29 26 22 21 20
65 69 71 73 76 79 78 79 82 86 88 90 89 90 88 83 75 70 66 60 58 55 54 52 50 45 39 36 39 46 48 38 25 29 33 39 31 32 25 22 21 19 22 20
70 73 74 77 80 79 79 82 86 89 91 91 91 89 81 76 72 66 62 58 56 52 48 44 41 38 31 28 22 17 20 18 24 27 26 29 31 23 17 18 20 19 22 25
72 74 79 80 77 79 82 85 88 90 91 92 89 81 77 72 68 64 58 49 44 40 37 34 32 30 25 22 16 15 13 17 22 24 27 30 25 24 25 26 24 22 26 26
75 79 79 76 79 82 85 87 89 89 89 87 80 75 69 65 60 52 46 39 35 32 28 27 23 20 14 14 18 13 18 20 21 26 25 27 25 25 28 28 27 26 30 28
79 74 75 79 82 84 87 87 87 86 81 78 74 66 62 52 46 40 37 34 31 28 24 20 19 17 16 17 15 15 19 20 22 24 26 27 28 30 31 33 33 32 30 30
72 75 79 81 83 86 86 85 83 79 77 73 66 56 49 43 39 36 32 32 27 23 19 21 26 24 19 14 18 18 20 22 26 28 28 30 32 32 27 22 21 22 23 25
75 79 81 83 85 85 82 79 77 73 69 61 52 46 41 38 35 32 28 24 21 17 14 17 17 18 20 24 23 24 26 27 26 28 30 33 31 23 22 23 24 25 26 28
79 81 83 86 83 79 78 75 69 62 54 48 43 40 37 35 32 29 24 19 15 15 16 18 20 21 19 20 22 22 22 24 27 28 27 24 22 23 23 24 25 26 26 27
80 82 82 81 78 76 72 62 56 48 43 40 37 35 31 28 25 23 20 16 14 15 17 21 22 23 23 24 24 23 25 28 29 26 24 22 23 25 27 27 27 27 27 27
78 77 77 77 74 66 56 48 42 37 36 34 32 29 25 22 20 18 17 15 12 14 18 20 21 21 21 23 24 26 26 26 25 25 25 25 26 25 23 23 25 26 27 27
75 75 72 64 54 46 40 37 34 32 30 29 27 24 21 19 17 15 14 15 16 17 19 20 21 22 23 24 23 25 25 26 27 28 29 28 26 25 25 26 26 27 27 28
71 63 54 45 37 34 32 31 30 29 27 25 23 21 19 17 15 14 13 15 17 18 21 21 21 22 24 26 27 28 29 29 27 24 24 25 26 26 27 29 29 27 27 26
54 45 36 30 29 29 30 30 28 27 24 23 20 19 16 15 14 14 14 14 16 19 20 22 24 27 28 25 26 28 28 26 23 21 22 24 26 27 27 26 26 25 25 25
33 27 25 26 28 28 28 26 25 24 22 20 18 16 15 15 13 13 13 13 15 16 19 22 24 24 24 25 25 24 22 21 22 22 24 26 27 28 28 27 26 26 25 24
23 23 25 27 26 26 24 24 22 19 18 17 15 15 14 13 12 12 12 12 13 13 15 17 18 19 20 21 21 21 22 23 25 26 26 27 27 26 26 26 25 25 24 24
23 24 25 24 23 22 21 19 16 15 15 15 15 13 12 11 11 11 10 10 10 11 12 13 14 15 16 17 18 19 20 21 21 22 22 22 23 24 24 25 25 25 25 24
24 23 21 21 20 18 15 14 15 15 14 15 15 13 13 12 12 11 11 10 10 11 11 12 12 13 14 15 16 17 18 18 19 20 21 21 22 23 24 24 26 27 27 27
18 19 18 16 14 13 13 14 15 16 17 16 14 14 14 13 13 13 13 12 13 13 13 14 14 15 15 15 16 16 16 17 18 18 19 19 19 20 21 22 23 24 26 27
21 16 14 12 15 17 18 19 20 20 18 17 18 18 17 17 16 16 16 16 16 16 17 17 17 16 16 16 17 17 17 18 18 18 19 19 20 20 20 21 20 22 22 23
12 15 18 22 23 23 23 22 20 18 19 22 23 20 21 20 21 20 20 19 19 19 18 18 18 18 19 19 18 18 18 18 18 18 18 18 19 20 20 21 21 21 21 22
Wind_Direction
287 287 291 294 296 298 303 308 310 309 310 311 312 310 312 311 311 313 314 314 315 314 312 309 305 301 296 294 291 289 288 287 288 286 287 284 281 280 278 276 279 279 279 281
287 288 292 294 297 300 305 309 309 310 311 310 311 312 312 312 314 314 315 315 315 313 310 304 303 299 295 292 290 292 290 287 288 288 285 281 280 280 279 278 276 275 270 281
287 291 292 296 302 305 308 310 310 311 310 311 312 312 313 315 316 315 316 315 313 311 309 305 301 299 293 289 292 290 285 282 284 286 284 282 281 284 286 281 275 273 270 277
290 291 294 299 302 306 308 310 310 311 312 313 313 313 315 315 315 315 316 315 312 308 305 303 298 294 292 294 293 287 280 287 289 288 284 287 286 294 292 285 274 264 276 281
293 295 299 302 303 305 307 308 310 310 312 314 313 316 316 316 316 316 314 311 308 305 303 296 294 291 293 291 287 286 284 286 276 265 277 277 279 288 297 294 275 269 276 283
295 298 300 301 301 304 305 307 308 310 313 313 314 315 315 316 315 315 310 308 306 303 300 295 296 294 292 289 285 286 288 294 297 268 261 269 278 287 293 286 272 267 277 283
297 298 299 299 301 303 304 308 310 312 313 314 315 315 316 315 313 311 309 306 304 302 298 296 293 291 292 290 285 280 286 288 288 268 272 264 283 284 292 280 273 261 282 287
295 297 298 299 299 300 307 310 312 312 312 313 315 315 315 312 310 308 307 306 302 300 297 292 290 287 285 276 264 268 271 274 260 262 258 273 277 291 284 273 266 260 279 283
293 296 297 297 298 307 309 311 311 311 313 314 314 314 312 309 307 306 306 304 299 297 294 293 291 291 293 285 272 249 257 252 247 258 266 276 284 286 273 289 270 271 278 285
293 294 295 298 306 309 310 311 311 313 313 314 314 311 309 308 307 307 305 301 298 294 293 292 291 289 287 278 252 239 242 252 254 255 264 279 289 295 289 273 275 277 281 278
292 293 299 306 308 309 310 311 312 313 313 312 310 308 308 308 307 305 303 300 296 296 294 289 286 278 270 262 243 267 263 262 260 259 272 274 284 287 287 280 273 273 272 276
292 301 304 306 308 309 310 312 312 311 309 308 308 308 308 306 305 302 300 297 297 294 286 264 261 254 249 243 247 259 264 259 262 262 267 275 281 289 294 280 272 272 274 276
300 303 305 307 308 309 312 311 310 308 307 308 309 308 307 306 303 301 299 297 296 291 277 244 244 253 245 263 261 244 242 253 261 271 277 282 289 291 287 278 275 270 267 268
303 305 306 307 309 311 311 309 308 307 309 308 308 308 308 305 303 300 297 295 295 285 270 266 265 264 249 247 257 261 264 270 274 278 284 288 284 272 270 275 278 278 280 283
305 306 308 309 310 310 309 309 309 308 306 310 311 309 307 305 303 302 299 297 284 250 238 250 257 260 259 255 259 263 266 276 287 290 288 279 266 265 272 278 282 279 279 282
307 309 309 310 310 310 309 307 308 309 311 311 308 306 306 303 301 300 298 290 272 252 248 254 260 261 258 260 263 270 280 287 292 285 278 272 273 276 276 276 275 278 282 285
309 309 310 311 310 307 308 311 313 312 310 308 309 309 307 307 305 300 289 280 261 253 255 257 261 260 263 267 271 276 281 282 277 277 275 271 273 276 276 275 275 278 281 284
309 310 309 306 307 308 309 311 311 311 314 316 314 311 311 312 304 294 283 269 259 255 260 264 265 265 266 270 275 278 280 284 284 277 274 275 274 270 272 276 280 280 280 282
309 307 306 307 308 312 311 311 315 318 319 319 318 316 314 310 302 296 284 278 265 264 261 265 262 264 273 277 276 277 282 289 288 279 272 267 273 274 275 278 282 281 282 283
309 309 310 311 311 311 314 319 321 323 323 324 322 317 312 309 304 297 291 284 274 265 262 263 264 272 279 275 274 278 284 285 280 277 274 273 274 276 278 279 280 281 281 281
312 314 314 314 316 318 322 324 326 329 328 328 326 323 321 318 312 304 296 290 284 277 273 271 275 276 276 278 281 283 283 278 276 277 278 278 279 279 279 279 280 279 279 279
317 315 315 320 322 326 328 331 333 332 335 338 339 337 331 326 321 317 311 303 296 291 286 285 286 285 284 285 285 285 284 283 282 283 283 282 280 279 279 278 279 279 277 275
317 322 323 326 332 333 336 337 342 346 350 352 353 350 349 348 346 342 336 329 323 318 314 310 307 302 299 298 296 294 291 290 289 288 286 285 284 283 280 279 277 276 276 274
331 327 335 342 342 340 350 1 6 7 5 5 3 3 8 7 5 2 360 356 351 345 338 333 327 323 319 314 311 307 305 301 297 294 292 290 287 285 284 281 279 278 276 274
333 350 350 353 5 16 22 24 25 22 20 16 14 16 15 14 14 11 7 5 359 354 349 345 342 337 332 328 324 320 316 314 311 308 304 302 298 294 291 289 286 283 280 278
4 357 25 41 47 44 41 38 35 32 29 30 34 31 30 28 24 22 18 13 9 3 359 354 349 345 341 336 331 326 323 319 316 314 312 310 308 304 301 297 294 290 288 285
29 58 61 58 51 46 44 40 40 40 42 41 38 35 39 37 35 32 28 24 20 16 13 9 5 0 356 352 348 343 339 335 331 328 326 321 316 311 308 304 303 298 294 289